This is the latest recevied weather packets stored in our database for station/object SHLBYV-WX. If no packets are shown the sender has not sent any weather packets the latest 1 day(s).
| Time | Temp. | Humidity | Pressure | Rain* | Wind** | Luminosity | Snow |
|---|---|---|---|---|---|---|---|
| 1778000485 | 12.22° C | 37% | 977.8 hPa | 0 mm | 5.36 m/s, 284° | - | - |
| 1777999553 | 11.67° C | 42% | 979 hPa | 0 mm | 5.36 m/s, 287° | - | - |
| 1777998671 | 10.56° C | 43% | 977 hPa | 0 mm | 5.81 m/s, 286° | - | - |
| 1777997753 | 10.56° C | 43% | 977 hPa | 0 mm | 5.36 m/s, 284° | - | - |
| 1777996886 | 10.56° C | 43% | 977 hPa | 0 mm | 4.92 m/s, 273° | - | - |
| 1777995949 | 10.56° C | 51% | 978.9 hPa | 0 mm | 4.92 m/s, 271° | - | - |
| 1777995074 | 10° C | 44% | 977.8 hPa | 0 mm | 5.36 m/s, 274° | - | - |
| 1777994152 | 10° C | 44% | 977.8 hPa | 0 mm | 5.36 m/s, 280° | - | - |
| 1777993295 | 10° C | 44% | 977.8 hPa | 0 mm | 5.36 m/s, 285° | - | - |
| 1777992353 | 10° C | 53% | 977.7 hPa | 0 mm | 5.36 m/s, 281° | - | - |
| 1777991471 | 9.44° C | 41% | 977.6 hPa | 0 mm | 5.36 m/s, 287° | - | - |
| 1777990552 | 10° C | 41% | 977.6 hPa | 0 mm | 5.81 m/s, 284° | - | - |
| 1777989695 | 10° C | 41% | 977.6 hPa | 0 mm | 5.81 m/s, 285° | - | - |
| 1777988752 | 10° C | 60% | 977.5 hPa | 0 mm | 5.36 m/s, 284° | - | - |
| 1777987872 | 10° C | 60% | 977.5 hPa | 0 mm | 6.26 m/s, 300° | - | - |
| 1777986952 | 10° C | 60% | 977.5 hPa | 0 mm | 6.26 m/s, 300° | - | - |
| 1777986086 | 10° C | 60% | 977.5 hPa | 0 mm | 5.36 m/s, 300° | - | - |
| 1777985151 | 10° C | 71% | 976.8 hPa | 0 mm | 5.36 m/s, 303° | - | - |
| 1777984271 | 9.44° C | 74% | 975.1 hPa | 0 mm | 3.13 m/s, 308° | - | - |
| 1777983352 | 9.44° C | 74% | 975.1 hPa | 0 mm | 4.02 m/s, 302° | - | - |
| 1777982500 | 8.89° C | 74% | 975.1 hPa | 0 mm | 4.02 m/s, 301° | - | - |
| 1777981552 | 8.89° C | 70% | 975.3 hPa | 0 mm | 4.47 m/s, 278° | - | - |
| 1777980669 | 8.89° C | 70% | 973.8 hPa | 0 mm | 4.47 m/s, 274° | - | - |
| 1777979752 | 8.89° C | 70% | 973.8 hPa | 0 mm | 3.13 m/s, 281° | - | - |
| 1777978891 | 8.89° C | 70% | 973.8 hPa | 0 mm | 4.02 m/s, 277° | - | - |
* Rain latest hour (hover to see other rain measurements)
** Current wind speed in m/s (hover to see current wind gust speed)